EW6790 Weather Reports


time (UTC)temp
C
wind
direction
speed
KPH
gust
KPH
rain 1hr
cm
rain 24hr
cm
rain mn
cm
humidity
%
barometer
mb
20260905224619 26 94 11.3 16.1 0.00 0.00 0.00 85 1012.5
20260905223059 26 113 6.4 12.9 0.00 0.00 0.00 86 1012.6
20260905221603 26 115 6.4 14.5 0.00 0.00 0.00 86 1012.3
20260905220041 26 137 9.7 17.7 0.00 0.00 0.00 86 1012.0
20260905214540 27 103 8.0 17.7 0.00 0.00 0.00 86 1011.8
20260905213025 27 96 9.7 17.7 0.00 0.00 0.00 86 1011.9
20260905211524 27 122 4.8 16.1 0.00 0.00 0.00 86 1012.4
20260905210023 27 99 8.0 14.5 0.00 0.00 0.00 86 1012.6
20260905204525 27 102 6.4 11.3 0.00 0.00 0.00 85 1012.6
20260905203023 27 92 3.2 14.5 0.00 0.00 0.00 84 1012.9
20260905200024 26 98 4.8 12.9 0.00 0.00 0.00 86 1012.3
20260905194516 25 95 0.0 16.1 0.00 0.00 0.00 87 1012.4
20260905193013 25 95 12.9 29.0 0.00 0.00 0.00 87 1012.0
20260905190011 25 82 20.9 33.8 0.00 0.00 0.00 87 1011.5
20260905184519 25 82 20.9 32.2 0.00 0.00 0.00 87 1012.1
20260905183006 24 209 8.0 30.6 0.00 0.00 0.00 87 1012.5
20260905180044 23 74 22.5 29.0 0.00 0.00 0.00 85 1012.8
20260905174540 23 63 16.1 24.1 0.00 0.00 0.00 83 1013.3
20260905173015 23 100 14.5 20.9 0.00 0.00 0.00 70 1013.8
20260905171514 22 94 12.9 19.3 0.00 0.00 0.00 64 1014.1
20260905170100 22 94 9.7 16.1 0.00 0.00 0.00 66 1014.4
20260905164555 22 60 8.0 11.3 0.00 0.00 0.00 65 1014.6
20260905163039 22 70 4.8 8.0 0.00 0.00 0.00 67 1015.1
20260905161536 22 87 0.0 1.6 0.00 0.00 0.00 64 1015.3
20260905160021 22 322 0.0 3.2 0.00 0.00 0.00 57 1015.3
20260905154518 21 286 0.0 8.0 0.00 0.00 0.00 54 1015.5
20260905153006 21 290 6.4 14.5 0.00 0.00 0.00 58 1015.6
20260905151508 21 311 0.0 0.0 0.00 0.00 0.00 58 1014.7
20260905150004 21 307 0.0 1.6 0.00 0.00 0.00 53 1014.8
20260905144511 21 307 0.0 1.6 0.00 0.00 0.00 51 1014.6
20260905143059 21 105 0.0 9.7 0.00 0.00 0.00 50 1014.2
20260905141609 21 83 1.6 8.0 0.00 0.00 0.00 50 1014.0
20260905140103 21 64 3.2 8.0 0.00 0.00 0.00 49 1013.6
20260905134555 21 345 0.0 0.0 0.00 0.00 0.00 48 1013.7
20260905133042 21 345 0.0 0.0 0.00 0.00 0.00 48 1013.6
20260905131542 21 345 0.0 0.0 0.00 0.00 0.00 48 1013.5
20260905130041 -17 0.0 0.0 0.00 0.00 0.00 1013.5
20260905124536 -17 0.0 0.0 0.00 0.00 0.00 1013.1
20260905123030 -17 0.0 0.0 0.00 0.00 0.00 1012.7
20260905121525 -17 0.0 0.0 0.00 0.00 0.00 1012.4
20260905120023 -17 0.0 0.0 0.00 0.00 0.00 1012.1
20260905114518 -17 0.0 0.0 0.00 0.00 0.00 1011.9
20260905113055 -17 0.0 0.0 0.00 0.00 0.00 1011.7
20260905111550 -17 0.0 0.0 0.00 0.00 0.00 1012.0
20260905110029 -17 0.0 0.0 0.00 0.00 0.00 1011.9
20260905104533 -17 0.0 0.0 0.00 0.00 0.00 1011.7
20260905103003 -17 0.0 0.0 0.00 0.00 0.00 1011.8
20260905101559 -17 0.0 0.0 0.00 0.00 0.00 1011.9
20260905100046 -17 0.0 0.0 0.00 0.00 0.00 1011.8
20260905094538 -17 0.0 0.0 0.00 0.00 0.00 1011.9
20260905093039 21 70 4.8 8.0 0.00 0.00 0.00 46 1011.5
20260905091535 21 70 4.8 6.4 0.00 0.00 0.00 46 1011.2
20260905090033 21 71 4.8 8.0 0.00 0.00 0.00 47 1011.0
20260905084530 21 80 4.8 8.0 0.00 0.00 0.00 48 1011.4
20260905083034 21 74 3.2 8.0 0.00 0.00 0.00 50 1011.6
20260905081528 21 60 4.8 8.0 0.00 0.00 0.00 53 1011.7
20260905080008 22 58 1.6 6.4 0.00 0.00 0.00 54 1011.6
20260905074506 22 66 0.0 1.6 0.00 0.00 0.00 57 1011.6
20260905073046 22 65 0.0 6.4 0.00 0.00 0.00 57 1011.6
20260905071543 22 73 0.0 4.8 0.00 0.00 0.00 57 1011.5
20260905070025 22 53 3.2 6.4 0.00 0.00 0.00 59 1011.5
20260905064524 23 71 6.4 9.7 0.00 0.00 0.00 60 1011.4
20260905063005 23 82 4.8 8.0 0.00 0.00 0.00 60 1011.4
20260905061504 23 85 6.4 8.0 0.00 0.00 0.00 65 1011.2
20260905060049 23 68 6.4 11.3 0.00 0.00 0.00 68 1011.3
20260905054543 23 85 8.0 11.3 0.00 0.00 0.00 70 1011.2
20260905053022 23 60 6.4 9.7 0.00 0.00 0.00 71 1011.0
20260905051528 24 66 8.0 11.3 0.00 0.00 0.00 75 1010.9
20260905050006 24 70 8.0 11.3 0.00 0.00 0.00 77 1010.9
20260905044506 24 73 8.0 12.9 0.00 0.00 0.00 79 1010.9
20260905043002 25 67 8.0 12.9 0.00 0.00 0.00 77 1010.9
20260905041503 25 71 6.4 11.3 0.00 0.00 0.00 75 1010.9
20260905040104 25 55 6.4 12.9 0.00 0.00 0.00 76 1011.0
20260905034600 25 63 0.0 4.8 0.00 0.00 0.00 76 1011.0
20260905033102 25 56 4.8 9.7 0.00 0.00 0.00 75 1010.8
20260905031604 25 70 1.6 4.8 0.00 0.00 0.00 77 1010.9
20260905030035 26 62 0.0 3.2 0.00 0.00 0.00 78 1010.9
20260905024539 26 71 0.0 3.2 0.00 0.00 0.00 80 1010.6
20260905023014 26 66 0.0 4.8 0.00 0.00 0.00 80 1010.5
20260905021508 27 82 0.0 6.4 0.00 0.00 0.00 83 1010.3
20260905020051 27 70 0.0 1.6 0.00 0.00 0.00 85 1010.3
20260905014548 27 70 0.0 3.2 0.00 0.00 0.00 86 1010.0
20260905013026 28 88 0.0 1.6 0.00 0.00 0.00 86 1009.8
20260905011527 29 88 0.0 0.0 0.00 0.00 0.00 84 1009.6
20260905010000 30 88 1.6 4.8 0.00 0.00 0.00 83 1009.3
20260905004557 30 121 0.0 0.0 0.00 0.00 0.00 80 1009.3
20260905003038 31 120 0.0 0.0 0.00 0.00 0.00 78 1009.3
20260905001539 32 65 0.0 0.0 0.00 0.00 0.00 76 1009.2
20260905000031 35 340 0.0 0.0 0.00 0.00 0.00 68 1009.1
20260904234518 36 340 0.0 0.0 0.00 0.00 0.00 65 1009.1
20260904233120 36 339 0.0 0.0 0.00 0.00 0.00 63 1009.1
20260904231557 35 340 0.0 1.6 0.00 0.00 0.00 67 1009.1
20260904230108 35 28 0.0 3.2 0.00 0.00 0.00 66 1009.0